Lewis Run, PA

4:37 AM EST on February 27, 2017 (GMT -0500)
Bradford Regional

Weather History for KBFD - September, 2013

Change the Weather History Date:

Saturday, September 14, 2013

  Actual Average Record
Temperature  
Mean Temperature 49 °F 57 °F  
Max Temperature 62 °F 69 °F 81 °F (1991)
Min Temperature 36 °F 46 °F 27 °F (1985)
Degree Days  
Heating Degree Days 16 4  
Month to date heating degree days 81 38  
Since 1 July heating degree days 217 191  
Cooling Degree Days 0 0  
Month to date cooling degree days 30 13  
Year to date cooling degree days 325 190  
Moisture  
Dew Point 39 °F    
Average Humidity 61    
Maximum Humidity 89    
Minimum Humidity 32    
Precipitation  
Precipitation 0.03 in 0.13 in 1.09 in (1980)
Month to date precipitation 1.34 1.81  
Year to date precipitation 22.75 31.76  
Sea Level Pressure  
Sea Level Pressure 30.09 in    
Wind  
Wind Speed 5 mph (NNW)    
Max Wind Speed 14 mph    
Max Gust Speed 18 mph    
Visibility 9 miles    
Events Rain    
T = Trace of Precipitation, MM = Missing Value Source: NWS Daily Summary

Daily Weather History Graph

Daily Weather History Graph

Search for Another Location

Airport or City:

Trip Planner

Search our weather history database for the weather conditions in past years. The results will help you decide how hot, cold, wet, or windy it might be!

Date:

Astronomy

Sep. 14, 2013 Rise Set
Actual Time 6:53 AM EDT 7:25 PM EDT
Civil Twilight 6:25 AM EDT 7:53 PM EDT
Nautical Twilight 5:52 AM EDT 8:26 PM EDT
Astronomical Twilight 5:18 AM EDT 9:00 PM EDT
Moon 4:08 PM EDT (9/14) 1:20 AM EDT (9/14)
Length of Visible Light 13h 27m
Length of Day
12h 31m
Waxing Gibbous, 72% of the Moon is Illuminated
Sep 14
Waxing Gibbous
Sep 19
Full
Sep 26
Last Quarter
Oct 4
New
Oct 11
First Quarter

Hourly Weather History & Observations

Time (EDT) Temp. Windchill Dew Point Humidity Pressure Visibility Wind Dir Wind Speed Gust Speed Precip Events Conditions
12:36 AM 46.9 °F - 42.1 °F 83% 30.01 in 5.0 mi North 5.8 mph - 0.00 in Rain Light Rain
12:53 AM 46.0 °F 43.1 °F 42.1 °F 86% 30.02 in 3.0 mi North 5.8 mph - 0.00 in Rain Light Rain
1:33 AM 46.0 °F 42.5 °F 42.1 °F 86% 30.02 in 3.0 mi North 6.9 mph - 0.01 in Rain Light Rain
1:53 AM 46.0 °F 41.9 °F 42.1 °F 86% 30.02 in 2.5 mi NW 8.1 mph - 0.02 in Rain Light Rain
2:14 AM 46.0 °F 42.5 °F 42.1 °F 86% 30.02 in 5.0 mi NNW 6.9 mph - 0.00 in Rain Light Rain
2:53 AM 46.0 °F 43.1 °F 41.0 °F 83% 30.03 in 10.0 mi North 5.8 mph - 0.01 in   Overcast
3:14 AM 46.0 °F 43.1 °F 41.0 °F 83% 30.03 in 10.0 mi NNW 5.8 mph - N/A   Overcast
3:53 AM 46.0 °F 43.1 °F 41.0 °F 83% 30.04 in 10.0 mi NNW 5.8 mph - N/A   Overcast
4:15 AM 46.0 °F 43.9 °F 41.0 °F 83% 30.03 in 10.0 mi NNW 4.6 mph - N/A   Overcast
4:29 AM 46.0 °F 44.8 °F 41.0 °F 83% 30.04 in 10.0 mi NNW 3.5 mph - N/A   Overcast
4:39 AM 46.0 °F 43.9 °F 41.0 °F 83% 30.04 in 10.0 mi NNW 4.6 mph - N/A   Overcast
4:53 AM 46.0 °F 43.9 °F 41.0 °F 83% 30.05 in 10.0 mi NNW 4.6 mph - N/A   Overcast
5:53 AM 45.0 °F 41.8 °F 41.0 °F 86% 30.07 in 10.0 mi NNW 5.8 mph - N/A   Overcast
6:53 AM 45.0 °F 43.5 °F 39.9 °F 82% 30.08 in 10.0 mi NNW 3.5 mph - N/A   Overcast
7:53 AM 45.0 °F 43.5 °F 41.0 °F 86% 30.09 in 10.0 mi NNW 3.5 mph - N/A   Overcast
8:53 AM 46.9 °F - 41.0 °F 80% 30.12 in 10.0 mi NNW 5.8 mph - N/A   Overcast
9:53 AM 48.0 °F - 39.0 °F 71% 30.13 in 10.0 mi NNW 8.1 mph - N/A   Overcast
10:53 AM 50.0 °F - 39.0 °F 66% 30.14 in 10.0 mi Variable 5.8 mph - N/A   Mostly Cloudy
11:33 AM 54.0 °F - 39.9 °F 59% 30.12 in 10.0 mi NNW 8.1 mph - N/A   Scattered Clouds
11:53 AM 53.1 °F - 37.9 °F 57% 30.12 in 10.0 mi Calm Calm - N/A   Partly Cloudy
12:53 PM 57.0 °F - 39.0 °F 51% 30.12 in 10.0 mi North - - N/A   Clear
1:53 PM 59.0 °F - 36.0 °F 42% 30.11 in 10.0 mi West 11.5 mph - N/A   Clear
2:53 PM 61.0 °F - 35.1 °F 38% 30.09 in 10.0 mi NNW 13.8 mph - N/A   Clear
3:53 PM 61.0 °F - 35.1 °F 38% 30.09 in 10.0 mi WNW 12.7 mph - N/A   Clear
4:53 PM 61.0 °F - 33.1 °F 35% 30.09 in 10.0 mi WNW 9.2 mph - N/A   Clear
5:53 PM 60.1 °F - 30.9 °F 33% 30.11 in 10.0 mi West 6.9 mph - N/A   Clear
6:53 PM 57.0 °F - 30.9 °F 37% 30.13 in 10.0 mi WNW 4.6 mph - N/A   Clear
7:53 PM 48.9 °F - 37.0 °F 64% 30.15 in 10.0 mi Calm Calm - N/A   Clear
8:53 PM 44.1 °F - 37.0 °F 76% 30.16 in 10.0 mi Calm Calm - N/A   Clear
9:53 PM 43.0 °F - 35.1 °F 74% 30.18 in 10.0 mi Calm Calm - N/A   Clear
10:53 PM 39.0 °F - 35.1 °F 86% 30.19 in 10.0 mi Calm Calm - N/A   Clear
11:53 PM 37.0 °F 34.5 °F 34.0 °F 89% 30.18 in 10.0 mi SE 3.5 mph - N/A   Clear